Notices

What's New in latest Release from April 7th, 2021:

- Updated Glossary, including Speed of Maximum Gust, and Total Hourly Precipitation

- Updated national and regional climate services offices contacts and prices information

- Addition of station inventory lists for 1981-2010, 1971-2000, and 1961-1990 Normals.

If you haven't already, please take our survey and provide feedback about our website: https://eccc.sondage-survey.ca/f/LanguageSelection.aspx?s=442ca660-fcf1-47c0-95a9-59707d6fd709

Hourly Data Report for January 10, 2021

OTTAWA INTL A
ONTARIO
Current Station Operator: NAVCAN

45°19'00.000" N
75°40'00.000" W
114.90 m
6106001
71628
YOW

Download Data

Hourly Data (January 2021)
Hourly Data Report for January 10, 2021
TIME
LST
Temp Definition
°C
Dew Point Definition
°C
Rel Hum Definition
%
Precip. Amount Definition
mm

Wind Dir Definition
10's deg

Wind Spd Definition
km/h
Visibility Definition
km
Stn Press Definition
kPa
Hmdx Definition


Wind Chill Definition


Weather Definition


00:00 -9.2 -10.8 89   29 11 24.1 100.76   -15 LegendNANA
01:00 -8.4 -9.9 90   30 14 24.1 100.80   -15 Mostly Cloudy
02:00 -10.1 -11.5 89   31 12 24.1 100.87   -16 LegendNANA
03:00 -10.1 -11.0 93   31 9 24.1 100.93   -15 LegendNANA
04:00 -9.1 -10.5 90   30 10 9.7 100.96   -14 Snow
05:00 -10.7 -11.8 92   32 8 9.7 100.97   -15 Ice Crystals
06:00 -10.1 -11.0 93   31 8 8.1 101.02   -15 Ice Crystals
07:00 -10.4 -11.5 92   27 7 16.1 101.06   -14 Mainly Clear
08:00 -10.3 -11.3 92   28 6 19.3 101.10   -14 LegendNANA
09:00 -10.5 -11.7 91   27 7 19.3 101.18   -15 LegendNANA
10:00 -9.1 -10.3 91   24 8 19.3 101.24   -13 Cloudy
11:00 -8.7 -9.9 91   23 9 24.1 101.23   -13 LegendNANA
12:00 -8.7 -9.9 91   24 9 24.1 101.16   -13 LegendNANA
13:00 -8.7 -10.2 89   19 11 24.1 101.09   -14 Cloudy
14:00 -7.6 -10.1 82   25 10 24.1 101.09   -12 LegendNANA
15:00 -7.3 -9.8 82   21 8 24.1 101.10   -11 LegendNANA
16:00 -7.3 -9.9 82   25 8 24.1 101.14   -11 Cloudy
17:00 -7.3 -9.4 85   21 7 24.1 101.17   -11 LegendNANA
18:00 -8.4 -10.5 85   16 7 24.1 101.15   -12 LegendNANA
19:00 -8.5 -10.2 87   16 4 24.1 101.18   -11 Mostly Cloudy
20:00 -9.8 -11.3 89   9 5 24.1 101.16   -13 LegendNANA
21:00 -9.4 -10.6 91   14 5 24.1 101.16   -12 LegendNANA
22:00 -9.0 -10.1 92   10 4 24.1 101.13   -11 Mostly Cloudy
23:00 -7.8 -9.1 91   17 7 24.1 101.11   -11 LegendNANA

Notes on Data Quality.

Legend

  • E = Estimated
  • M = Missing
  • NA = Not Available*
  • [empty] = Indicates an unobserved value
Date modified: